Change the Weather History Date:

Sunday, December 30, 2012

  Actual Average (KRPD) Record (KRPD)
Temperature  
Mean Temperature 8 °F -  
Max Temperature 17 °F 21 °F 44 °F (2004)
Min Temperature 0 °F 6 °F -27 °F (2013)
Degree Days  
Heating Degree Days 56    
Moisture  
Dew Point 6 °F    
Average Humidity 83    
Maximum Humidity 92    
Minimum Humidity 73    
Precipitation  
Precipitation 0.00 in - - ()
Sea Level Pressure  
Sea Level Pressure 29.99 in    
Wind  
Wind Speed 6 mph (South)    
Max Wind Speed 10 mph    
Max Gust Speed -    
Visibility 8 miles    
Events Snow    
Averages and records for this station are not official NWS values.
T = Trace of Precipitation, MM = Missing Value Source: NWS Daily Summary

Daily Weather History Graph

Daily Weather History Graph

Search for Another Location

Airport or City:

Trip Planner

Search our weather history database for the weather conditions in past years. The results will help you decide how hot, cold, wet, or windy it might be!

Date:

Astronomy

Dec. 30, 2012 Rise Set
Actual Time 7:47 AM CST 4:33 PM CST
Civil Twilight 7:13 AM CST 5:07 PM CST
Nautical Twilight 6:36 AM CST 5:45 PM CST
Astronomical Twilight 6:00 AM CST 6:21 PM CST
Moon 7:13 PM CST (12/30) 8:50 AM CST (12/30)
Length of Visible Light 9h 53m
Length of Day
8h 45m
Waning Gibbous, 95% of the Moon is Illuminated
Dec 30
Waning Gibbous
Jan 4
Last Quarter
Jan 11
New
Jan 18
First Quarter
Jan 26
Full

Hourly Weather History & Observations

Time (CST) Temp. Windchill Dew Point Humidity Pressure Visibility Wind Dir Wind Speed Gust Speed Precip Events Conditions
12:15 AM 12.2 °F 2.9 °F 8.6 °F 85% 30.10 in 7.0 mi West 5.8 mph - N/A Snow Light Snow
12:35 AM 10.4 °F 2.2 °F 8.6 °F 92% 30.10 in 7.0 mi WSW 4.6 mph - N/A Snow Light Snow
12:55 AM 8.6 °F -2.6 °F 5.0 °F 85% 30.09 in 7.0 mi SW 6.9 mph - N/A Snow Light Snow
1:15 AM 6.8 °F -5.9 °F 3.2 °F 85% 30.10 in 7.0 mi SW 8.1 mph - N/A   Scattered Clouds
1:35 AM 3.2 °F -6.2 °F 1.4 °F 92% 30.10 in 7.0 mi WSW 4.6 mph - N/A   Clear
7:35 AM -0.4 °F -8.3 °F -4.0 °F 85% 30.12 in 5.0 mi SSE 3.5 mph - N/A   Clear
7:55 AM -0.4 °F -8.3 °F -4.0 °F 85% 30.12 in 5.0 mi South 3.5 mph - N/A   Clear
8:15 AM -0.4 °F -8.3 °F -5.8 °F 78% 30.11 in 5.0 mi SSE 3.5 mph - N/A   Clear
8:35 AM -0.4 °F - -4.0 °F 85% 30.12 in 5.0 mi Calm Calm - N/A   Clear
8:55 AM -0.4 °F - -4.0 °F 85% 30.12 in 5.0 mi Calm Calm - N/A   Clear
9:15 AM 1.4 °F -8.3 °F -4.0 °F 78% 30.13 in 5.0 mi South 4.6 mph - N/A   Clear
9:35 AM 3.2 °F -7.8 °F -0.4 °F 85% 30.13 in 5.0 mi SSE 5.8 mph - N/A   Clear
9:55 AM 5.0 °F -6.9 °F 1.4 °F 85% 30.15 in 5.0 mi South 6.9 mph - N/A   Clear
10:15 AM 5.0 °F -5.6 °F 3.2 °F 92% 30.15 in 5.0 mi South 5.8 mph - N/A   Clear
10:35 AM 6.8 °F -4.8 °F 3.2 °F 85% 30.14 in 5.0 mi South 6.9 mph - N/A   Clear
10:55 AM 8.6 °F -1.3 °F 5.0 °F 85% 30.12 in 7.0 mi SSE 5.8 mph - N/A   Clear
11:15 AM 10.4 °F -0.4 °F 6.8 °F 85% 30.11 in 7.0 mi South 6.9 mph - N/A   Clear
11:35 AM 10.4 °F -1.5 °F 8.6 °F 92% 30.09 in 7.0 mi South 8.1 mph - N/A   Clear
11:55 AM 12.2 °F 2.9 °F 6.8 °F 79% 30.08 in 7.0 mi SE 5.8 mph - N/A   Clear
12:15 PM 12.2 °F 0.7 °F 5.0 °F 73% 30.06 in 7.0 mi SE 8.1 mph - N/A   Clear
12:35 PM 14.0 °F 2.9 °F 6.8 °F 73% 30.05 in 7.0 mi SSE 8.1 mph - N/A   Clear
12:55 PM 14.0 °F 5.1 °F 8.6 °F 79% 30.03 in 10.0 mi SSE 5.8 mph - N/A   Clear
1:15 PM 14.0 °F 2.9 °F 8.6 °F 79% 30.02 in 10.0 mi SSE 8.1 mph - N/A   Clear
1:35 PM 14.0 °F 2.9 °F 8.6 °F 79% 30.01 in 10.0 mi SSE 8.1 mph - N/A   Clear
1:55 PM 14.0 °F 1.2 °F 8.6 °F 79% 29.99 in 10.0 mi SE 10.4 mph - N/A   Clear
2:15 PM 14.0 °F 3.9 °F 8.6 °F 79% 29.98 in 10.0 mi SE 6.9 mph - N/A   Clear
2:35 PM 14.0 °F 2.0 °F 8.6 °F 79% 29.98 in 10.0 mi SE 9.2 mph - N/A   Clear
2:55 PM 14.0 °F 2.0 °F 8.6 °F 79% 29.97 in 10.0 mi SSE 9.2 mph - N/A   Clear
3:15 PM 14.0 °F 2.9 °F 8.6 °F 79% 29.95 in 10.0 mi SE 8.1 mph - N/A   Clear
3:35 PM 14.0 °F 3.9 °F 8.6 °F 79% 29.95 in 10.0 mi SE 6.9 mph - N/A   Clear
3:55 PM 14.0 °F 3.9 °F 8.6 °F 79% 29.95 in 10.0 mi SE 6.9 mph - N/A   Clear
4:15 PM 14.0 °F 2.9 °F 10.4 °F 86% 29.93 in 10.0 mi SE 8.1 mph - N/A   Clear
4:35 PM 14.0 °F 3.9 °F 8.6 °F 79% 29.93 in 10.0 mi SE 6.9 mph - N/A   Clear
4:55 PM 14.0 °F 5.1 °F 8.6 °F 79% 29.92 in 10.0 mi SE 5.8 mph - N/A   Clear
5:15 PM 14.0 °F 5.1 °F 8.6 °F 79% 29.91 in 10.0 mi ESE 5.8 mph - N/A   Clear
5:35 PM 14.0 °F 5.1 °F 8.6 °F 79% 29.89 in 10.0 mi SE 5.8 mph - N/A   Clear
5:55 PM 14.0 °F 5.1 °F 8.6 °F 79% 29.91 in 10.0 mi SSE 5.8 mph - N/A   Scattered Clouds
6:15 PM 14.0 °F 3.9 °F 8.6 °F 79% 29.90 in 10.0 mi SSE 6.9 mph - N/A   Mostly Cloudy
6:35 PM 15.8 °F 3.4 °F 10.4 °F 79% 29.89 in 10.0 mi SSE 10.4 mph - N/A   Overcast
6:55 PM 17.6 °F 6.4 °F 12.2 °F 79% 29.89 in 10.0 mi SSE 9.2 mph - N/A   Overcast
7:15 PM 17.6 °F 7.3 °F 12.2 °F 79% 29.88 in 10.0 mi South 8.1 mph - N/A   Overcast
7:35 PM 14.0 °F 3.9 °F 10.4 °F 86% 29.88 in 10.0 mi South 6.9 mph - N/A   Scattered Clouds
7:55 PM 14.0 °F 6.5 °F 10.4 °F 86% 29.87 in 10.0 mi South 4.6 mph - N/A   Clear
8:15 PM 14.0 °F 5.1 °F 10.4 °F 86% 29.86 in 10.0 mi South 5.8 mph - N/A   Clear
8:35 PM 12.2 °F - 8.6 °F 85% 29.86 in 10.0 mi Calm Calm - N/A   Clear
8:55 PM 14.0 °F 8.2 °F 10.4 °F 86% 29.86 in 10.0 mi SSW 3.5 mph - N/A   Clear
9:15 PM 14.0 °F 6.5 °F 10.4 °F 86% 29.84 in 10.0 mi South 4.6 mph - N/A   Clear
9:35 PM 12.2 °F 6.1 °F 10.4 °F 92% 29.86 in 10.0 mi SW 3.5 mph - N/A   Clear
9:55 PM 14.0 °F 6.5 °F 10.4 °F 86% 29.86 in 10.0 mi SW 4.6 mph - N/A   Clear
10:15 PM 14.0 °F 8.2 °F 10.4 °F 86% 29.85 in 10.0 mi SW 3.5 mph - N/A   Clear
10:35 PM 14.0 °F 8.2 °F 10.4 °F 86% 29.85 in 10.0 mi WSW 3.5 mph - N/A   Clear
10:55 PM 10.4 °F - 8.6 °F 92% 29.86 in 7.0 mi Calm Calm - N/A   Clear
11:15 PM 8.6 °F 2.0 °F 6.8 °F 92% 29.86 in 5.0 mi WSW 3.5 mph - N/A   Clear
11:35 PM 6.8 °F -3.5 °F 3.2 °F 85% 29.86 in 5.0 mi West 5.8 mph - N/A   Clear
11:55 PM 5.0 °F -4.1 °F 3.2 °F 92% 29.86 in 7.0 mi West 4.6 mph - N/A   Clear